Regional Weather Roundup
Issued by NWS

Home | Current Version | Previous Version | Text Only | Print | Product List | Glossary Off
Versions: 1 2 3 4 5 6 7 8 9 10 11 12 13 14 15 16 17 18 19 20 21 22 23 24 25 26 27 28 29 30 31 32 33 34 35 36 37 38 39 40 41 42 43 44 45 46 47 48 49 50

000
ASUS43 KMPX 211210
RWRMN
WEATHER ROUNDUP FOR MINNESOTA
NATIONAL WEATHER SERVICE TWIN CITIES/CHANHASSEN MN
600 AM CST FRI NOV 21 2014


NOTE: "FAIR" INDICATES FEW OR NO CLOUDS BELOW 12,000 FEET WITH NO
SIGNIFICANT WEATHER AND/OR OBSTRUCTIONS TO VISIBILITY. N/A MEANS
CURRENT SKY AND/OR WEATHER CONDITIONS ARE NOT AVAILABLE.

MNZ060>063-068>070-211300-
   Twin Cities Metro

CITY           SKY/WX    TMP DP  RH WIND       PRES   REMARKS
TWIN CITIES    CLEAR      7   2  80 SE9       30.22F WCI  -7
6HR MIN TEMP:   3; 6HR MAX TEMP:   7;

ST PAUL        PTCLDY     5   1  83 SE9       30.25F WCI  -9
CRYSTAL        CLEAR      8   3  80 SE7       30.19F WCI  -3
BLAINE         PTCLDY     9   3  78 SE8       30.19F WCI  -4
LAKEVILLE      PTCLDY     1   0  92 CALM      30.21F
EDEN PRAIRIE   PTCLDY     6   1  80 S8        30.19F WCI  -7
6HR MIN TEMP:   2; 6HR MAX TEMP:   6;

SOUTH ST PAUL  PTCLDY     5   1  84 CALM      30.23F
LAKE ELMO      FAIR       3   0  85 S3        30.23F
$$
MNZ001>005-007-008-013>017-022>024-027-028-211300-
   Northwest Minnesota

CITY           SKY/WX    TMP DP  RH WIND       PRES   REMARKS
BEMIDJI        FAIR      12   4  69 S10G22    29.95F WCI  -2
HALLOCK        PTCLDY    16  10  79 S22       29.82F WCI  -2
ROSEAU         PTCLDY    16   9  73 S16G25    29.84F WCI   0
WARROAD        CLOUDY    16   9  73 S10G18    29.85F WCI   3
THIEF RVR FALL PTCLDY    16   9  73 S15       29.87F WCI   1
CROOKSTON      CLOUDY    16  10  79 S25       29.90F WCI  -3
FOSSTON        MOCLDY    12   7  79 S16       29.91F WCI  -4
DETROIT LAKES  PTCLDY    14  10  85 S13       29.96F WCI   0
MOORHEAD       PTCLDY    14  10  85 S20G25    29.94F WCI  -3
PARK RAPIDS    PTCLDY     6   2  83 S13       29.99F WCI -10
MAHNOMEN       FAIR      15  10  80 S15G21    29.92F WCI   0
$$
MNZ006-009>011-018-025>026-211300-
   North Central Minnesota

CITY           SKY/WX    TMP DP  RH WIND       PRES   REMARKS
BAUDETTE       CLOUDY    12   3  67 S13G21    29.88F WCI  -3
FLAG ISLAND    CLOUDY    16  10  79 S22G29    29.84F HAZE    WCI  -2
INTL FALLS     MOCLDY     9   1  70 VRB5      29.96F WCI   1
6HR MIN TEMP:  -2; 6HR MAX TEMP:   9;

WASKISH        CLOUDY    14   3  62 S6G18     29.93F WCI   5
BIG FORK       MOCLDY    12   1  62 S15G21    29.99F WCI  -4
LONGVILLE      FAIR       9   3  78 S10       30.03F WCI  -6
GRAND RAPIDS   MOCLDY     7   1  78 S15G21    30.02F WCI -11
CRANE LAKE     CLOUDY     7   1  78 S5        30.05F WCI  -2
ORR            CLOUDY     5  -2  72 S12       29.99F WCI -11
COOK           MOCLDY     7   0  72 S7        30.03F WCI  -5
WALKER         FAIR      10   3  72 S13       29.99F WCI  -5
$$
MNZ012-019>021-037-211300-
   Northeast Minnesota

CITY           SKY/WX    TMP DP  RH WIND       PRES   REMARKS
DULUTH         MOCLDY     6  -3  66 SW10      30.10F WCI  -9
6HR MIN TEMP:  -4; 6HR MAX TEMP:   7;

ELY            PTCLDY     5   0  78 S7        30.05F WCI  -7
HIBBING        MOCLDY     1  -5  75 SE5       30.06F WCI  -9
EVELETH        PTCLDY     1  -2  85 S3        30.08F
DULUTH HARBOR  MOCLDY     3  -2  78 CALM      30.20S
TWO HARBORS    PTCLDY     9   1  72 SW6       30.12F WCI  -1
SILVER BAY     MOCLDY     7   1  78 CALM      30.12F
GRAND MARAIS     N/A     13   3  64 W6        30.18F WCI   4
G MARAIS ARPRT CLOUDY     1  -6  71 S7        30.06F WCI -11
$$
MNZ029>031-032-039>041-046>048-054>057-064-211300-
   West Central Minnesota

CITY           SKY/WX    TMP DP  RH WIND       PRES   REMARKS
FERGUS FALLS   PTCLDY    12   7  79 S17       30.02F WCI  -5
WHEATON        CLOUDY    12   9  85 SE17      29.99F WCI  -5
MORRIS         PTCLDY     9   7  92 SE20      30.01F WCI -11
ALEXANDRIA     MOCLDY    15   9  76 S17       30.03F WCI  -1
ELBOW LAKE       N/A     12   8  84 S24       29.98F WCI  -7
WADENA         PTCLDY    10   7  85 S14       30.00F WCI  -5
GLENWOOD       PTCLDY    14  10  85 S17       30.05F WCI  -3
APPLETON       PTCLDY    12   7  79 SE10      30.05F WCI  -1
BENSON         CLEAR     10   7  85 S13G20    30.06F WCI  -5
ORTONVILLE     MOCLDY     9   3  78 SE15      30.01F WCI  -8
MADISON        PTCLDY    16  10  79 S12       30.04F WCI   3
WILLMAR        FAIR      10   7  85 SE10      30.10F WCI  -3
$$
MNZ033>034-036-042>043-049>051-058-059-211300-
   Central Minnesota

CITY           SKY/WX    TMP DP  RH WIND       PRES   REMARKS
ST CLOUD       PTCLDY     1  -3  83 SE7       30.15F WCI -12
6HR MIN TEMP:  -7; 6HR MAX TEMP:   5;

SAUK CENTRE    FAIR       6   2  86 SE8       30.08F WCI  -7
PAYNESVILLE    MOCLDY     7   4  89 SE12      30.11F WCI  -9
AITKIN         PTCLDY    10   3  72 S10       30.07F WCI  -3
PINE RIVER     PTCLDY     9   3  78 S8        30.08F WCI  -4
BRAINERD       PTCLDY     6   2  83 S13       30.08F WCI -10
STAPLES        PTCLDY     7   3  85 S12       30.03F WCI  -9
LONG PRAIRIE   FAIR       7   3  85 SE10      30.07F WCI  -8
LITTLE FALLS   PTCLDY     5   0  78 SE7       30.12F WCI  -7
LITCHFIELD     PTCLDY     9   7  92 S3        30.14S
BUFFALO        PTCLDY     7   3  84 CALM      30.18F
MAPLE LAKE     PTCLDY     8   6  91 SE6       30.17S WCI  -2
$$
MNZ037-044-045-052-053-211300-
   East Central Minnesota

CITY           SKY/WX    TMP DP  RH WIND       PRES   REMARKS
PRINCETON      PTCLDY     5   1  85 CALM      30.16F
MORA             N/A    N/A N/A N/A MISG        N/A
CAMBRIDGE      PTCLDY     5  -2  72 SE5       30.17F WCI  -4
RUSH CITY      PTCLDY    -1  -4  85 S3        30.20F
MOOSE LAKE     PTCLDY    -6  -9  84 CALM      30.13F
HINCKLEY       FAIR      -4  -6  92 CALM      30.17F
CLOQUET        MOCLDY     0  -6  78 S5        30.11F WCI -10
MCGREGOR       PTCLDY     7   1  78 S8        30.10F WCI  -6
$$
MNZ071>073-080-081-089-090-097-098-211300-
   Southwest Minnesota

CITY           SKY/WX    TMP DP  RH WIND       PRES   REMARKS
MONTEVIDEO     PTCLDY    10   9  92 S12G17    30.08F WCI  -4
GRANITE FALLS  PTCLDY    10   6  84 SE14      30.11F WCI  -6
CANBY          PTCLDY    22  17  79 S17G24    30.03F WCI   8
MARSHALL       PTCLDY    18  10  73 S16G22    30.07F WCI   3
REDWOOD FALLS  CLEAR      9   4  80 S13       30.13F WCI  -7
OLIVIA         CLEAR     10   5  79 S13       30.12F WCI  -5
PIPESTONE      PTCLDY    14  10  85 S16       30.06F WCI  -2
WINDOM         PTCLDY    16  10  79 S15       30.12F WCI   1
WORTHINGTON    PTCLDY    12   9  85 S17       30.11F WCI  -5
JACKSON        PTCLDY    14  10  85 S17       30.15S WCI  -3
TRACY          PTCLDY    18  12  79 S21G26    30.07F WCI   1
SLAYTON        CLEAR     15  12  88 S16       30.09S WCI  -1
$$
MNZ065>067-074>077-082>085-091>093-211300-
   South Central Minnesota

CITY           SKY/WX    TMP DP  RH WIND       PRES   REMARKS
MANKATO        MOCLDY     9   1  72 S10       30.20F WCI  -6
NEW ULM        MOCLDY     9   3  78 S14       30.17F WCI  -8
FAIRMONT       PTCLDY     9   3  78 S13       30.18F WCI  -7
GLENCOE        MOCLDY     9   6  87 S7        30.17F WCI  -2
FARIBAULT      PTCLDY     9   5  85 S8        30.21F WCI  -4
OWATONNA       PTCLDY    10   3  72 S15       30.21F WCI  -6
WASECA         PTCLDY    12   5  73 SE9       30.23F WCI   0
ALBERT LEA       N/A      9   7  92 S7        30.23S WCI  -3
$$
MNZ078>079-086>088-094>096-211300-
   Southeast Minnesota

CITY           SKY/WX    TMP DP  RH WIND       PRES   REMARKS
ROCHESTER      PTCLDY     3  -1  83 S9        30.24F WCI -12
6HR MIN TEMP:  -3; 6HR MAX TEMP:   3;

RED WING         N/A      5   1  85 SE5       30.26F WCI  -4
STANTON        PTCLDY     9   4  79 S8        30.21F WCI  -3
DODGE CENTER   PTCLDY     7   3  85 S12       30.22F WCI  -9
WINONA         MOCLDY     9   5  85 CALM      30.33S
AUSTIN         PTCLDY     3   1  92 SE5       30.24F WCI  -6
PRESTON        PTCLDY     2  -2  85 S7        30.27S WCI -11
$$
ABBREVIATIONS USED IN REMARKS
   TC - TEMPERATURES IN CELSIUS
  WCI - WIND CHILL INDEX
   HX - HEAT INDEX
  VSB - VISIBILITY
$$


USA.gov is the U.S. government's official web portal to all federal, state and local government web resources and services.